[[[{"header":{"parameterUnit":"kt","parameterCategory":2,"dx":1,"dy":1,"la1":30.253999710083008,"la2":30.299108505249023,"lo1":-89.0895004272461,"lo2":-89.04439544677734,"nx":28,"ny":28,"refTime":"2022-10-23T21:00:00:Z","depth":0,"parameterNumber":1,"parameterNumberName":"U-component_of_WINDS"},"data":[-9.6295,-9.6436,-9.6403,-9.6549,-9.6544,-9.6636,-9.6659,-9.6684,-9.6696,-9.6804,-9.6859,-9.684,-9.6836,-9.6895,-9.6953,-9.6942,-9.6966,-9.7043,-9.7016,-9.6706,-9.6661,-9.6617,-9.6578,-9.7051,-9.7052,-9.7337,-9.734,-9.7342,-9.6076,-9.6072,-9.614,-9.6181,-9.6239,-9.6145,-9.6171,-9.6224,-9.6309,-9.6325,-9.6378,-9.6469,-9.6537,-9.6506,-9.6565,-9.663,-9.6586,-9.6648,-9.6637,-9.6637,-9.6308,-9.6267,-9.6682,-9.6682,-9.6682,-9.6682,-9.6682,-9.6681,-9.5666,-9.5753,-9.5756,-9.5828,-9.5839,-9.5868,-9.5944,-9.5915,-9.598,-9.6036,-9.5982,-9.6077,-9.6084,-9.6136,-9.6145,-9.6218,-9.6142,-9.6196,-9.6208,-9.6221,-9.624,-9.5825,-9.6227,-9.6226,-9.6225,-9.6224,-9.6223,0,-9.5352,-9.5316,-9.5377,-9.5429,-9.5479,-9.5515,-9.5541,-9.5588,-9.5497,-9.5555,-9.5634,-9.5673,-9.5752,-9.5821,-9.5868,-9.5863,-9.5764,-9.5753,-9.5789,-9.5811,-9.5828,-9.5815,-9.5273,-9.5739,-9.5734,-9.5731,-9.5729,-9.5727,-9.4929,-9.5035,-9.502,-9.5068,-9.5071,-9.5151,-9.519,-9.5101,-9.5146,-9.5165,-9.5246,-9.5316,-9.5364,-9.5499,-9.5459,-9.5518,-9.5468,-9.565,-9.5475,-9.5497,-9.5463,-9.5454,-9.5463,-9.5682,-9.5687,-9.5692,-9.5696,0,-9.4693,-9.4631,-9.4783,-9.4756,-9.4752,-9.4868,-9.4843,-9.4927,-9.4887,-9.4995,-9.5015,-9.4953,-9.5032,-9.4962,-9.5039,-9.5,-9.5188,-9.5143,-9.5185,-9.517,-9.5321,-9.5305,-9.5831,-9.5893,-9.541,-9.5415,-9.5419,0,-9.4304,-9.4447,-9.4344,-9.4435,-9.4592,-9.4495,-9.4652,-9.4632,-9.4633,-9.4717,-9.4596,-9.4677,-9.4575,-9.4647,-9.459,-9.4733,-9.4748,-9.4724,-9.4705,-9.473,-9.4733,-9.4746,-9.472,-9.4667,-9.4664,-9.4662,-9.466,0,-9.3935,-9.4048,-9.4197,-9.4211,-9.4193,-9.4266,-9.4262,-9.4261,-9.4299,-9.4338,-9.4361,-9.4416,-9.4443,-9.4487,-9.4411,-9.4295,-9.4585,-9.441,-9.4559,-9.4561,-9.462,-9.4616,-9.5107,-9.4656,-9.4656,-9.4655,-9.4654,0,-9.3606,-9.3647,-9.3874,-9.3853,-9.3886,-9.3986,-9.4028,-9.4097,-9.4104,-9.4073,-9.4103,-9.4009,-9.413,-9.3961,-9.4125,-9.3995,-9.403,-9.4019,-9.4028,-9.4027,-9.3837,-9.4116,-9.4597,-9.4641,-9.4038,-9.4033,-9.4028,0,-9.3199,-9.341,-9.3324,-9.3542,-9.3628,-9.3479,-9.3588,-9.3597,-9.3564,-9.3631,-9.3594,-9.3672,-9.3532,-9.3545,-9.3637,-9.36,-9.377,-9.3576,-9.3671,-9.3676,-9.3667,-9.411,-9.4195,-9.4501,-9.3962,-9.3969,-9.3974,0,-9.2873,-9.2846,-9.2891,-9.29,-9.2895,-9.2966,-9.3093,-9.3147,-9.3196,-9.3221,-9.332,-9.3432,-9.3327,-9.3351,-9.3279,-9.3379,-9.3652,-9.3253,-9.3251,-9.3323,-9.3924,-9.4003,-9.4055,-9.3582,-9.359,-9.3597,-9.3921,0,-9.2381,-9.2477,-9.2596,-9.2623,-9.2667,-9.2799,-9.2717,-9.2774,-9.2699,-9.2657,-9.2806,-9.2792,-9.2847,-9.2888,-9.2815,-9.3066,-9.3011,-9.2899,-9.2721,-9.3016,-9.312,-9.3163,-9.2573,-9.2567,-9.2562,-9.2558,0,0,-9.2004,-9.2137,-9.2036,-9.2151,-9.2181,-9.202,-9.2168,-9.2179,-9.2203,-9.2227,-9.2129,-9.2281,-9.2274,-9.2461,-9.2547,-9.2571,-9.2606,-9.2506,-9.2878,-9.2914,-9.2947,-9.306,-9.3106,-9.255,-9.2548,-9.2547,-9.2545,0,-9.1804,-9.1801,-9.1948,-9.1953,-9.1957,-9.1904,-9.1941,-9.1915,-9.1894,-9.2039,-9.1901,-9.1981,-9.2105,-9.2113,-9.2134,-9.2484,-9.2373,-9.2508,-9.2721,-9.2833,-9.2875,-9.2912,-9.3033,-9.3078,-9.2533,-9.2534,-9.2535,0,-9.1463,-9.1444,-9.1506,-9.1565,-9.1565,-9.1657,-9.1453,-9.1559,-9.1626,-9.1441,-9.1584,-9.1566,-9.1571,-9.176,-9.1842,-9.1754,-9.2165,-9.2021,-9.2049,-9.2054,-9.2158,-9.2209,-9.2255,-9.1654,-9.1652,-9.1649,0,0,-9.1301,-9.1389,-9.1336,-9.1515,-9.1525,-9.1448,-9.1488,-9.1414,-9.1421,-9.1425,-9.1396,-9.1408,-9.1477,-9.1526,-9.1587,-9.1808,-9.1798,-9.1916,-9.1958,-9.1992,-9.2016,-9.2129,-9.218,-9.1639,-9.1639,-9.1638,0,0,-9.1223,-9.1167,-9.1088,-9.1286,-9.1298,-9.1256,-9.1369,-9.127,-9.1316,-9.1291,-9.1171,-9.1169,-9.1344,-9.133,-9.1202,-9.1521,-9.1349,-9.1378,-9.1523,-9.1574,-9.1614,-9.1611,-9.0987,0,0,0,0,0,-9.0972,-9.1174,-9.1103,-9.1123,-9.1195,-9.1296,-9.1305,-9.1209,-9.1089,-9.1181,-9.1141,-9.102,-9.1236,-9.112,-9.1142,-9.1284,-9.1506,-9.1529,-9.1552,-9.1789,-9.1844,-9.189,0,0,0,0,0,0,-9.0979,-9.1005,-9.1097,-9.1066,-9.1081,-9.1288,-9.1062,-9.1042,-9.1076,-9.1051,-9.1032,-9.1019,-9.094,-9.1102,-9.1124,-9.126,-9.0979,-9.1515,-9.1535,-9.1553,-9.1808,-9.1853,-9.1891,0,0,0,0,0,-9.0985,-9.1005,-9.1144,-9.1062,-9.1075,-9.0997,-9.1054,-9.1035,-9.106,-9.0997,-9.098,-9.0984,-9.0947,-9.0958,-9.1114,-9.1253,-9.0963,-9.0972,-9.1528,-9.1544,-9.1558,-9.183,0,0,0,0,0,0,-9.0988,-9.0988,-9.1144,-9.1145,-9.0977,-9.0983,-9.0981,-9.103,-9.1001,-9.0987,-9.0943,-9.0923,-9.0954,-9.0961,-9.0971,-9.1256,-9.0951,-9.0959,-9.0965,-9.154,-9.1552,-9.1563,0,0,0,0,0,0,-9.0976,-9.099,-9.1145,-9.1043,-9.103,-9.0972,-9.097,-9.1088,-9.1003,-9.0948,-9.093,-9.0935,-9.0939,-9.0965,-9.0972,-9.1161,-9.0941,-9.0949,-9.0955,-9.0958,-9.155,-9.156,0,0,0,0,0,0,-9.098,-9.0992,-9.1042,-9.1033,-9.1021,-9.1019,-9.1074,-9.1153,-9.0916,-9.0952,-9.0892,-9.0881,-9.0947,-9.0951,-9.0973,-9.116,-9.1161,-9.0941,-9.0947,-9.0951,-9.0953,0,0,0,0,0,0,0,-9.0983,-9.093,-9.1142,-9.1025,-9.1014,-9.1149,-9.1149,-9.1149,-9.0913,-9.0904,-9.0894,-9.0885,-9.0894,-9.0903,-9.0912,-9.116,0,0,-9.094,-9.0944,0,0,0,0,0,0,0,0,-9.0923,-9.0929,-9.1142,-9.1142,-9.1142,-9.1149,-9.1149,-9.1149,-9.0912,-9.0904,-9.0896,-9.0889,-9.0897,-9.0904,-9.0911,0,0,0,0,0,0,0,0,0,0,0,0,0,0,0,-9.1142,-9.1142,0,-9.1149,-9.1149,-9.1149,-9.0911,-9.0904,-9.0898,-9.0892,-9.0899,-9.0905,-9.0911,0,0,0,0,0,0,0,0,0,0,0,0,0,0,0,0,0,0,0,0,0,0,0,0,0,0,0,0,0,0,0,0,0,0,0,0,0,0,0,0,0,0,0,0,0,0,0,0,0,0,0,0,0,0,0,0,0,0,0,0,0,0,0,0,0,0,0,0,0]}],[{"header":{"parameterUnit":"kt","parameterCategory":2,"dx":1,"dy":1,"la1":30.253999710083008,"la2":30.299108505249023,"lo1":-89.0895004272461,"lo2":-89.04439544677734,"nx":28,"ny":28,"refTime":"2022-10-23T21:00:00:Z","depth":0,"parameterNumber":2,"parameterNumberName":"V-component_of_WINDS"},"data":[0.4307,0.4347,0.4346,0.4392,0.4398,0.443,0.4441,0.4455,0.4465,0.4503,0.4524,0.4526,0.4535,0.456,0.4583,0.4583,0.4595,0.4613,0.4611,0.453,0.4519,0.4508,0.4501,0.4615,0.4615,0.4697,0.4698,0.4698,0.4259,0.4266,0.4288,0.4308,0.4328,0.4311,0.4325,0.4344,0.4372,0.4383,0.4402,0.4434,0.4459,0.446,0.4483,0.4504,0.4497,0.4511,0.4512,0.4514,0.4427,0.4418,0.4516,0.4516,0.4516,0.4516,0.4516,0.4516,0.4171,0.4194,0.4205,0.4228,0.4237,0.425,0.4272,0.4272,0.4293,0.4316,0.4306,0.4337,0.4347,0.437,0.4376,0.4401,0.4385,0.4399,0.4403,0.4409,0.4417,0.4311,0.4404,0.4403,0.4403,0.4403,0.4402,0,0.4107,0.4104,0.4122,0.4142,0.4158,0.4172,0.4184,0.4197,0.4185,0.4202,0.4227,0.424,0.4267,0.4291,0.4309,0.4311,0.4295,0.429,0.4301,0.431,0.4318,0.4321,0.4184,0.4288,0.4287,0.4286,0.4285,0.4285,0.4023,0.4047,0.4054,0.4068,0.4072,0.4093,0.4106,0.4092,0.4106,0.4118,0.4138,0.416,0.4177,0.4215,0.4212,0.4231,0.4224,0.4265,0.4226,0.4235,0.4232,0.4233,0.4238,0.4274,0.4275,0.4277,0.4278,0,0.3978,0.397,0.4005,0.4007,0.4008,0.4035,0.4037,0.4057,0.4052,0.4081,0.4086,0.4079,0.4102,0.4092,0.4114,0.4108,0.4158,0.4146,0.4157,0.4156,0.4197,0.4195,0.4317,0.4335,0.421,0.4211,0.4212,0,0.3905,0.3935,0.3923,0.3943,0.3978,0.3962,0.3997,0.3996,0.4001,0.4022,0.3999,0.402,0.4002,0.4022,0.4013,0.405,0.4052,0.4052,0.405,0.4056,0.4057,0.4066,0.4063,0.4036,0.4035,0.4035,0.4034,0,0.3837,0.3862,0.3894,0.3899,0.3902,0.3917,0.3919,0.3923,0.3933,0.3945,0.3952,0.3965,0.3974,0.3986,0.3974,0.3949,0.4017,0.398,0.4017,0.4018,0.4035,0.4035,0.4142,0.4034,0.4033,0.4033,0.4033,0,0.3777,0.3788,0.3833,0.3837,0.3844,0.3863,0.3877,0.389,0.3895,0.3891,0.3899,0.3882,0.3908,0.3874,0.3912,0.3884,0.3894,0.3894,0.3896,0.3901,0.3864,0.3933,0.4032,0.4045,0.3904,0.3902,0.3901,0,0.3706,0.3747,0.3733,0.3775,0.3793,0.3768,0.3789,0.3793,0.3788,0.3804,0.3798,0.3814,0.3785,0.3788,0.3808,0.3803,0.384,0.3797,0.3825,0.3826,0.383,0.392,0.394,0.401,0.3887,0.3889,0.389,0,0.3648,0.3647,0.3655,0.3661,0.366,0.3673,0.3697,0.3709,0.3721,0.3723,0.3746,0.3764,0.3745,0.3749,0.3735,0.3756,0.3815,0.3732,0.3732,0.3752,0.3876,0.3897,0.3908,0.3801,0.3803,0.3804,0.3878,0,0.3569,0.3586,0.3605,0.3612,0.3619,0.3642,0.3628,0.3638,0.3625,0.3618,0.3646,0.3641,0.3652,0.3658,0.3643,0.3694,0.3684,0.3662,0.3629,0.3686,0.3711,0.372,0.3594,0.3593,0.3592,0.3592,0,0,0.3505,0.3527,0.3507,0.3528,0.3534,0.3504,0.3531,0.3532,0.3534,0.3539,0.352,0.3546,0.3542,0.3578,0.3594,0.3596,0.3605,0.3584,0.3658,0.3665,0.3672,0.3699,0.3708,0.359,0.359,0.3589,0.3589,0,0.3474,0.3469,0.3493,0.3494,0.3493,0.3484,0.349,0.3483,0.348,0.3504,0.3479,0.3493,0.351,0.3513,0.3516,0.3579,0.356,0.3582,0.3624,0.3649,0.3657,0.3665,0.3693,0.3703,0.3587,0.3587,0.3587,0,0.3418,0.3413,0.3422,0.3428,0.3426,0.3442,0.3405,0.3421,0.3434,0.3397,0.3422,0.3417,0.3416,0.3448,0.3461,0.3445,0.3521,0.3491,0.3496,0.3498,0.3521,0.3532,0.3541,0.3421,0.342,0.342,0,0,0.3393,0.3405,0.3393,0.3419,0.3421,0.3405,0.341,0.3397,0.3396,0.3396,0.3388,0.3388,0.3399,0.3406,0.3415,0.3451,0.3452,0.3471,0.3479,0.3485,0.3491,0.3516,0.3526,0.3418,0.3418,0.3418,0,0,0.338,0.3368,0.3354,0.3381,0.3382,0.3371,0.3389,0.3371,0.3377,0.3372,0.3349,0.3348,0.3377,0.3371,0.3349,0.3404,0.3371,0.3376,0.3406,0.3416,0.3423,0.3426,0.3309,0,0,0,0,0,0.3339,0.337,0.3357,0.3359,0.3364,0.3379,0.3379,0.3361,0.334,0.3355,0.3346,0.3323,0.3356,0.3335,0.3337,0.3364,0.3393,0.3398,0.3402,0.3449,0.346,0.3468,0,0,0,0,0,0,0.334,0.3343,0.3356,0.3347,0.3348,0.3377,0.3338,0.3334,0.3338,0.3334,0.3326,0.3323,0.3307,0.3332,0.3335,0.336,0.3308,0.3395,0.3399,0.3402,0.3453,0.3461,0.3468,0,0,0,0,0,0.334,0.3343,0.3355,0.3346,0.3347,0.333,0.3337,0.3333,0.3336,0.3321,0.3317,0.3322,0.3308,0.3309,0.3333,0.3359,0.3306,0.3307,0.3397,0.34,0.3403,0.3457,0,0,0,0,0,0,0.3341,0.3339,0.3355,0.3355,0.3333,0.3328,0.3327,0.3332,0.3322,0.3319,0.3315,0.3312,0.331,0.331,0.3311,0.336,0.3304,0.3305,0.3306,0.34,0.3402,0.3404,0,0,0,0,0,0,0.3338,0.3339,0.3355,0.3339,0.3336,0.3327,0.3325,0.3342,0.3323,0.3317,0.3314,0.3314,0.3308,0.3311,0.3311,0.3337,0.3303,0.3304,0.3305,0.3305,0.3402,0.3403,0,0,0,0,0,0,0.3338,0.3339,0.3339,0.3337,0.3335,0.3329,0.3341,0.3347,0.3309,0.3318,0.3305,0.3304,0.3309,0.3309,0.3312,0.3338,0.3337,0.3303,0.3304,0.3304,0.3305,0,0,0,0,0,0,0,0.3338,0.3336,0.3357,0.3335,0.3333,0.3351,0.3351,0.3351,0.3309,0.3307,0.3306,0.3304,0.3297,0.3298,0.33,0.3338,0,0,0.3303,0.3304,0,0,0,0,0,0,0,0,0.3335,0.3336,0.3357,0.3357,0.3357,0.3351,0.3351,0.3351,0.3309,0.3307,0.3306,0.3305,0.3298,0.3299,0.3299,0,0,0,0,0,0,0,0,0,0,0,0,0,0,0,0.3357,0.3357,0,0.3351,0.3351,0.3351,0.3308,0.3307,0.3306,0.3305,0.3298,0.3299,0.3299,0,0,0,0,0,0,0,0,0,0,0,0,0,0,0,0,0,0,0,0,0,0,0,0,0,0,0,0,0,0,0,0,0,0,0,0,0,0,0,0,0,0,0,0,0,0,0,0,0,0,0,0,0,0,0,0,0,0,0,0,0,0,0,0,0,0,0,0,0]}]]]